Meteo Giornale » Osservazioni meteo Stati Uniti (USA) » Puyallop-Thun

ore: 07:55 - Osservazioni Meteo Puyallop-Thun
Lat. 47° 6' N Lon. 122° 17' W Alt. 164 metri s.l.m.

poco_nuvoloso

14 °C

Poco Nuvoloso

Temp. 24 Ore

11 °C

26 °C

Nord

0 Km/h

Dew point 14 °C

Umidità 100 %

Visibilità  10 Km

Il sole sorge alle ore 06:28

Il sole tramonta alle ore 19:49

Data e Ora Cielo e Fenomeni T °C DP °C Um. % Pres. hPa Vis. km Vento km/h
Oggi h: 07:55 poco_nuvoloso Poco Nuvoloso 14 14 100 1010 10 N 0
Oggi h: 07:35 coperto_pioggia Pioviggine 13 13 100 1010 10 N 0
Oggi h: 07:15 coperto_pioggia Pioviggine 13 13 100 1010 10 N 0
Oggi h: 06:55 coperto_pioggia Pioviggine 13 13 100 1010 10 N 0
Oggi h: 06:35 coperto_pioggia Pioviggine 13 13 100 1010 10 N 0
Oggi h: 06:15 coperto_pioggia Pioviggine 12 12 100 1010 10 N 0
Oggi h: 05:55 coperto_pioggia Pioviggine 11 11 100 1010 10 N 0
Oggi h: 05:35 molto_nuvoloso Molto Nuvoloso 11 11 100 1010 10 N 0
Oggi h: 05:15 coperto Coperto 12 12 100 1010 10 N 0
Oggi h: 04:55 coperto Coperto 12 12 100 1010 10 N 0
Oggi h: 04:35 coperto Coperto 12 12 100 1010 10 N 0
Oggi h: 04:15 coperto Coperto 12 12 100 1009 10 N 0
Oggi h: 03:55 molto_nuvoloso Molto Nuvoloso 12 12 100 1009 10 N 0
Oggi h: 03:35 molto_nuvoloso Molto Nuvoloso 12 12 100 1009 10 N 0
Oggi h: 03:15 molto_nuvoloso Molto Nuvoloso 12 12 100 1009 10 N 0
Oggi h: 02:55 coperto Coperto 12 12 100 1009 10 N 0
Oggi h: 02:35 coperto Coperto 12 12 100 1009 10 N 0
Oggi h: 02:15 coperto Coperto 13 12 93 1009 10 N 0
Oggi h: 01:55 coperto Coperto 13 12 93 1009 10 N 0
Oggi h: 01:35 coperto Coperto 13 13 100 1009 10 N 0
Oggi h: 01:15 coperto Coperto 13 13 100 1009 10 N 0
Oggi h: 00:55 coperto Coperto 13 13 100 1009 10 N 0
Oggi h: 00:35 coperto Coperto 13 13 100 1008 10 N 0
Oggi h: 00:15 coperto Coperto 13 13 100 1008 10 N 0
Ieri h: 23:55 molto_nuvoloso Molto Nuvoloso 14 12 87 1008 10 N 0
Ieri h: 23:35 molto_nuvoloso Molto Nuvoloso 14 13 93 1008 10 N 0
Ieri h: 23:15 molto_nuvoloso Molto Nuvoloso 14 13 93 1008 10 N 0
Ieri h: 22:55 molto_nuvoloso Molto Nuvoloso 14 13 93 1009 10 N 0
Ieri h: 22:35 molto_nuvoloso Molto Nuvoloso 15 13 87 1009 10 N 0
Ieri h: 22:15 molto_nuvoloso Molto Nuvoloso 15 13 87 1009 10 N 0
Ieri h: 21:55 molto_nuvoloso Molto Nuvoloso 16 13 82 1009 10 N 0
Ieri h: 21:35 molto_nuvoloso Molto Nuvoloso 16 13 82 1009 10 N 0
Ieri h: 21:15 coperto Coperto 17 13 77 1009 10 N 0
Ieri h: 20:55 molto_nuvoloso Molto Nuvoloso 18 13 72 1009 10 N 0
Ieri h: 20:35 nuvoloso Nuvoloso 18 13 72 1009 10 N 0
Ieri h: 20:15 sereno Sereno 18 13 72 1008 10 N 0
Ieri h: 19:55 sereno Sereno 20 12 59 1008 10 N 0
Ieri h: 19:35 sereno Sereno 21 12 56 1008 10 N 0
Ieri h: 19:15 sereno Sereno 22 11 49 1008 10 N 0
Ieri h: 18:55 sereno Sereno 22 11 49 1008 10 N 0
Ieri h: 18:35 sereno Sereno 23 11 46 1008 10 N 0
Ieri h: 18:15 sereno Sereno 24 11 43 1008 10 N 0
Ieri h: 17:55 sereno Sereno 25 11 41 1008 10 N 0
Ieri h: 17:35 sereno Sereno 25 11 41 1008 10 N 0
Ieri h: 17:15 sereno Sereno 25 11 41 1008 10 N 0
Ieri h: 16:55 sereno Sereno 25 11 41 1009 10 N 5.5
Ieri h: 16:35 sereno Sereno 26 11 39 1009 10 N 0
Ieri h: 16:15 sereno Sereno 25 11 41 1009 10 N 7.4
Ieri h: 15:55 sereno Sereno 25 11 41 1009 10 N 9.3
Ieri h: 15:35 sereno Sereno 26 11 39 1009 10 N 5.5
Ieri h: 15:15 sereno Sereno 25 12 44 1009 10 N 0
Ieri h: 14:55 sereno Sereno 25 12 44 1010 10 N 0
Ieri h: 14:35 sereno Sereno 24 12 47 1010 10 N 0
Ieri h: 14:15 sereno Sereno 24 12 47 1010 10 N 0
Ieri h: 13:55 sereno Sereno 24 12 47 1010 10 N 0
Ieri h: 13:35 sereno Sereno 24 12 47 1010 10 N 5.5
Ieri h: 13:15 sereno Sereno 23 12 49 1011 10 N 0
Ieri h: 12:55 sereno Sereno 23 12 49 1011 10 N 0
Ieri h: 12:35 sereno Sereno 23 12 49 1011 10 N 0
Ieri h: 12:15 sereno Sereno 22 12 53 1012 10 N 0
Ieri h: 11:55 sereno Sereno 22 12 53 1012 10 N 0
Ieri h: 11:35 sereno Sereno 21 12 56 1012 0 N 7.4
Ieri h: 11:15 sereno Sereno 20 11 56 1012 10 N 0
Ieri h: 10:55 sereno Sereno 19 12 63 1013 10 N 0
Ieri h: 10:35 sereno Sereno 19 11 59 1013 10 N 0
Ieri h: 10:15 sereno Sereno 18 12 67 1013 10 N 0
Ieri h: 09:55 sereno Sereno 18 12 67 1013 10 N 0
Ieri h: 09:35 sereno Sereno 17 12 72 1013 10 N 0
Ieri h: 09:15 sereno Sereno 17 13 77 1014 10 N 0
Ieri h: 08:55 sereno Sereno 16 12 77 1014 10 N 0
Ieri h: 08:35 sereno Sereno 15 13 87 1014 10 N 0